This demonstration page uses our WeatherBlox Daily Observations layout. Learn more.

41.55636, -103.73856

Hourly Observations for December 14, 2015

Temp ( °F °C ) Dew Point ( °F °C ) Humidity (%) Winds ( mph kmh ) Pressure ( in mb ) Visibility ( mi km ) Precip ( " mm )
12:53 am 00:53 Clear 18 -8 14 -10 86 86 NW 3 6 29.77 1008 10 16.09344 0 0
1:53 am 01:53 Clear 16 -9 10 -12 79 79 W 3 6 29.77 1008 10 16.09344 0 0
2:53 am 02:53 Clear 16 -9 12 -11 86 86 NW 3 6 29.77 1008 10 16.09344 0 0
3:53 am 03:53 Clear 16 -9 12 -11 86 86 NNW 3 6 29.77 1008 10 16.09344 0 0
4:53 am 04:53 Clear 16 -9 12 -11 86 86 N 5 7 29.77 1008 10 16.09344 0 0
5:53 am 05:53 Clear 14 -10 10 -12 85 85 WSW 7 11 29.8 1009 10 16.09344 0 0
6:53 am 06:53 Clear 16 -9 12 -11 86 86 N 7 11 29.83 1010 10 16.09344 0 0
7:53 am 07:53 Sunny 18 -8 12 -11 79 79 NW 5 7 29.8 1009 10 16.09344 0 0
8:53 am 08:53 Sunny 23 -5 19 -7 86 86 NNW 3 6 29.74 1007 10 16.09344 0 0
9:53 am 09:53 Sunny 27 -3 21 -6 80 80 S 3 6 29.68 1005 10 16.09344 0 0
10:53 am 10:53 Sunny 28 -2 25 -4 86 86 S 3 6 29.71 1006 10 16.09344 0 0
11:53 am 11:53 Sunny 30 -1 25 -4 80 80 SSE 12 19 29.65 1004 10 16.09344 0 0
12:53 pm 12:53 Sunny 32 0 25 -4 75 75 ESE 12 19 29.62 1003 10 16.09344 0 0
1:53 pm 13:53 Sunny 34 1 27 -3 75 75 ESE 10 17 29.62 1003 10 16.09344 0 0
2:53 pm 14:53 Mostly Cloudy 34 1 28 -2 81 81 ESE 12 19 29.62 1003 10 16.09344 0 0
3:53 pm 15:53 Partly Cloudy 34 1 27 -3 75 75 E 6 9 29.62 1003 10 16.09344 0 0
4:53 pm 16:53 Clear 28 -2 27 -3 93 93 NE 9 15 29.71 1006 10 16.09344 0 0
5:53 pm 17:53 Clear 27 -3 25 -4 93 93 ENE 8 13 29.71 1006 10 16.09344 0 0
6:53 pm 18:53 Clear 25 -4 21 -6 86 86 ENE 8 13 29.74 1007 10 16.09344 0 0
7:38 pm 19:38 Partly Cloudy 23 -5 19 -7 86 86 E 7 11 29.77 1008 10 16.09344 0 0
7:53 pm 19:53 Mostly Cloudy 25 -4 23 -5 93 93 ENE 8 13 29.77 1008 8 12.874752 0 0
8:36 pm 20:36 Cloudy 25 -4 23 -5 93 93 E 6 9 29.77 1008 10 16.09344 0 0
8:53 pm 20:53 Cloudy 25 -4 23 -5 93 93 E 8 13 29.8 1009 10 16.09344 0 0
9:53 pm 21:53 Cloudy 25 -4 21 -6 86 86 ENE 10 17 29.8 1009 10 16.09344 0 0
10:03 pm 22:03 Cloudy 25 -4 21 -6 86 86 ENE 9 15 29.8 1009 10 16.09344 0 0
10:13 pm 22:13 Cloudy 25 -4 21 -6 86 86 NE 10 17 29.8 1009 10 16.09344 0 0
10:53 pm 22:53 Cloudy 25 -4 21 -6 86 86 NNE 10 17 29.8 1009 10 16.09344 0 0
11:49 pm 23:49 Cloudy 25 -4 21 -6 86 86 NE 15 24 29.8 1009 10 16.09344 0 0
11:53 pm 23:53 Cloudy 25 -4 21 -6 86 86 ENE 13 20 29.8 1009 10 16.09344 0 0

Powered by AerisWeather